EW8029 Weather Reports


time (UTC)temp
C
wind
direction
speed
KPH
gust
KPH
rain 1hr
cm
rain 24hr
cm
rain mn
cm
humidity
%
barometer
mb
20260509173603 29 266 8.0 16.1 0.00 0.03 0.03 53 1007.9
20260509173024 29 266 4.8 12.9 0.00 0.05 0.03 55 1007.9
20260509172403 29 266 4.8 9.7 0.00 0.05 0.03 55 1007.8
20260509171803 29 266 6.4 12.9 0.00 0.05 0.03 55 1007.8
20260509171245 28 266 6.4 14.5 0.00 0.05 0.03 54 1007.8
20260509170645 28 267 6.4 14.5 0.00 0.05 0.03 57 1007.9
20260509170024 28 267 4.8 12.9 0.00 0.05 0.03 55 1007.9
20260509165403 28 266 6.4 14.5 0.00 0.05 0.03 58 1008.0
20260509164824 28 266 6.4 14.5 0.00 0.05 0.03 56 1007.9
20260509164245 28 266 6.4 12.9 0.00 0.05 0.03 60 1008.0
20260509163603 27 266 8.0 14.5 0.00 0.05 0.03 58 1008.1
20260509163003 27 265 8.0 14.5 0.00 0.05 0.03 61 1008.3
20260509162403 27 265 6.4 14.5 0.00 0.05 0.03 61 1008.3
20260509161803 27 264 6.4 12.9 0.00 0.05 0.03 62 1008.3
20260509161224 27 264 6.4 14.5 0.00 0.05 0.03 63 1008.2
20260509160624 27 262 6.4 14.5 0.00 0.05 0.03 64 1008.2
20260509160003 27 262 4.8 14.5 0.00 0.05 0.03 67 1008.2
20260509155424 27 262 4.8 9.7 0.00 0.05 0.03 66 1008.2
20260509154803 26 262 6.4 12.9 0.00 0.05 0.03 68 1008.2
20260509154224 26 262 8.0 14.5 0.00 0.05 0.03 68 1008.1
20260509153603 26 260 8.0 16.1 0.00 0.05 0.03 68 1008.2
20260509153003 26 259 8.0 16.1 0.00 0.05 0.03 68 1008.2
20260509152424 26 257 9.7 16.1 0.00 0.05 0.03 68 1008.2
20260509151803 26 254 8.0 16.1 0.00 0.05 0.03 67 1008.2
20260509151224 26 253 6.4 12.9 0.00 0.05 0.03 66 1008.2
20260509150603 26 252 4.8 9.7 0.00 0.05 0.03 67 1008.1
20260509150045 26 252 4.8 9.7 0.00 0.05 0.03 68 1008.0
20260509145424 25 252 3.2 12.9 0.00 0.05 0.03 71 1008.0
20260509144824 25 252 1.6 6.4 0.00 0.05 0.03 75 1008.0
20260509144258 25 252 3.2 8.0 0.00 0.05 0.03 75 1008.1
20260509143645 25 252 3.2 9.7 0.00 0.05 0.03 76 1008.0
20260509143024 25 252 3.2 9.7 0.00 0.05 0.03 78 1008.0
20260509142424 24 251 3.2 9.7 0.00 0.05 0.03 81 1008.0
20260509141824 23 251 4.8 12.9 0.00 0.05 0.03 83 1008.0
20260509141203 23 250 4.8 12.9 0.00 0.05 0.03 84 1008.0
20260509140603 23 250 6.4 12.9 0.00 0.05 0.03 85 1008.1
20260509140003 23 245 8.0 16.1 0.00 0.05 0.03 86 1008.1
20260509135403 22 231 6.4 16.1 0.00 0.05 0.03 86 1008.0
20260509134803 22 219 4.8 12.9 0.00 0.05 0.03 84 1007.9
20260509134203 22 218 4.8 11.3 0.00 0.05 0.03 81 1007.8
20260509133603 22 218 3.2 11.3 0.00 0.05 0.03 79 1007.8
20260509133024 22 218 3.2 8.0 0.00 0.05 0.03 78 1007.8
20260509132424 21 218 1.6 6.4 0.00 0.05 0.03 78 1007.7
20260509131803 21 218 1.6 6.4 0.00 0.05 0.03 78 1007.7
20260509131245 21 218 3.2 6.4 0.00 0.05 0.03 79 1007.8
20260509130603 21 218 3.2 8.0 0.00 0.05 0.03 79 1007.6
20260509130024 21 218 4.8 8.0 0.00 0.05 0.03 79 1007.7
20260509125424 21 218 3.2 8.0 0.00 0.05 0.03 79 1007.5
20260509124906 21 218 1.6 4.8 0.00 0.05 0.03 79 1007.7
20260509124203 21 218 1.6 4.8 0.00 0.05 0.03 80 1007.6
20260509123603 21 218 3.2 8.0 0.00 0.05 0.03 80 1007.3
20260509123003 21 218 3.2 6.4 0.00 0.05 0.03 80 1007.0
20260509122403 21 218 3.2 8.0 0.00 0.05 0.03 80 1006.9
20260509121803 21 218 1.6 8.0 0.00 0.05 0.03 80 1006.8
20260509121224 21 218 3.2 6.4 0.00 0.05 0.03 79 1006.3
20260509120603 21 218 3.2 8.0 0.00 0.05 0.03 80 1006.5
20260509120106 21 218 4.8 14.5 0.00 0.05 0.03 80 1006.5
20260509115424 21 214 9.7 22.5 0.00 0.05 0.03 79 1006.8
20260509114803 21 211 12.9 22.5 0.00 0.05 0.03 79 1006.4
20260509114203 21 214 12.9 24.1 0.03 0.05 0.03 79 1006.2
20260509113624 21 216 12.9 24.1 0.03 0.05 0.03 79 1006.3
20260509113024 21 216 12.9 27.4 0.03 0.05 0.03 80 1006.1
20260509112403 21 219 16.1 27.4 0.03 0.05 0.03 80 1006.1
20260509111906 21 219 16.1 32.2 0.03 0.05 0.03 80 1006.0
20260509111224 21 210 19.3 38.6 0.03 0.05 0.03 80 1005.9
20260509110603 21 202 16.1 43.5 0.03 0.05 0.03 80 1005.5
20260509110024 21 199 14.5 35.4 0.03 0.05 0.03 80 1005.4
20260509105403 21 199 11.3 30.6 0.03 0.05 0.03 81 1005.6
20260509104824 21 202 11.3 25.7 0.03 0.05 0.03 81 1006.0
20260509104245 21 199 12.9 25.7 0.00 0.03 0.03 82 1005.9
20260509103603 21 198 11.3 22.5 0.00 0.03 0.00 82 1005.7
20260509103024 21 197 12.9 29.0 0.00 0.03 0.00 83 1006.0
20260509102403 21 191 12.9 29.0 0.00 0.03 0.00 83 1006.5
20260509101803 21 186 11.3 22.5 0.00 0.03 0.00 83 1006.5
20260509101224 21 181 11.3 22.5 0.00 0.03 0.00 84 1006.6
20260509100624 21 175 12.9 22.5 0.00 0.03 0.00 84 1006.5
20260509100004 21 167 9.7 22.5 0.00 0.03 0.00 84 1006.7
20260509095403 21 164 6.4 14.5 0.00 0.03 0.00 84 1006.8
20260509094803 21 164 6.4 14.5 0.00 0.03 0.00 84 1007.0
20260509094224 21 164 6.4 16.1 0.00 0.03 0.00 85 1007.1
20260509093603 21 164 8.0 17.7 0.00 0.03 0.00 85 1007.1
20260509093045 21 164 3.2 14.5 0.00 0.03 0.00 86 1007.2
20260509092424 21 164 0.0 4.8 0.00 0.03 0.00 85 1007.5
20260509091803 21 164 1.6 8.0 0.00 0.03 0.00 85 1007.7
20260509091203 21 164 4.8 8.0 0.00 0.03 0.00 85 1007.5
20260509090603 22 164 4.8 8.0 0.00 0.03 0.00 85 1007.7
20260509090024 22 164 4.8 8.0 0.00 0.03 0.00 85 1007.8
20260509085403 22 164 4.8 12.9 0.00 0.03 0.00 85 1007.9
20260509084824 22 164 6.4 14.5 0.00 0.03 0.00 84 1008.1
20260509084203 21 164 8.0 14.5 0.00 0.03 0.00 84 1008.2
20260509083624 21 164 4.8 14.5 0.00 0.03 0.00 85 1008.3
20260509083024 21 164 4.8 8.0 0.00 0.03 0.00 85 1008.6
20260509082424 21 164 3.2 8.0 0.00 0.03 0.00 85 1008.4
20260509081803 21 0 0.0 0.0 0.00 0.03 0.00 85 1008.6
20260509081203 21 164 0.0 1.6 0.00 0.03 0.00 85 1008.8
20260509080603 21 164 0.0 1.6 0.00 0.03 0.00 85 1008.7
20260509080003 21 164 1.6 3.2 0.00 0.03 0.00 85 1008.7
20260509075403 21 164 1.6 3.2 0.00 0.03 0.00 85 1008.8
20260509074906 21 164 1.6 3.2 0.00 0.03 0.00 85 1008.8
20260509074203 21 164 1.6 4.8 0.00 0.03 0.00 85 1008.9
20260509073603 21 164 0.0 1.6 0.00 0.03 0.00 85 1008.8
20260509073024 21 164 1.6 3.2 0.00 0.03 0.00 86 1008.8
20260509072403 21 164 1.6 3.2 0.00 0.03 0.00 86 1008.8
20260509071803 21 0 0.0 0.0 0.00 0.03 0.00 86 1008.7
20260509071224 21 164 1.6 4.8 0.00 0.03 0.00 86 1008.7
20260509070645 21 164 1.6 4.8 0.00 0.03 0.00 86 1008.5
20260509070003 21 164 0.0 3.2 0.00 0.03 0.00 86 1008.2
20260509065424 21 164 0.0 3.2 0.00 0.03 0.00 86 1008.2
20260509064803 21 164 1.6 3.2 0.00 0.03 0.00 86 1007.9
20260509064224 21 164 1.6 4.8 0.00 0.03 0.00 86 1007.9
20260509063603 21 164 0.0 4.8 0.00 0.03 0.00 86 1007.9
20260509063003 21 164 1.6 3.2 0.00 0.03 0.00 86 1007.7
20260509062403 21 164 3.2 4.8 0.00 0.03 0.00 86 1007.6
20260509061803 21 164 4.8 8.0 0.00 0.03 0.00 86 1007.7
20260509061224 21 164 4.8 8.0 0.00 0.03 0.00 86 1008.0
20260509060624 21 164 4.8 8.0 0.00 0.03 0.00 87 1008.1
20260509060045 21 164 4.8 11.3 0.00 0.03 0.00 87 1008.0
20260509055424 21 164 4.8 11.3 0.00 0.03 0.00 87 1007.9
20260509054824 21 164 4.8 8.0 0.00 0.03 0.00 87 1008.0
20260509054203 21 164 1.6 8.0 0.00 0.03 0.00 87 1008.0
20260509053624 21 0 0.0 0.0 0.00 0.03 0.00 87 1007.8
20260509053045 21 0 0.0 0.0 0.00 0.03 0.00 87 1007.8
20260509052424 21 164 0.0 3.2 0.00 0.03 0.00 87 1007.7
20260509051906 21 164 0.0 3.2 0.00 0.03 0.00 87 1007.8
20260509051203 21 164 1.6 4.8 0.00 0.03 0.00 87 1007.7
20260509050603 21 164 1.6 4.8 0.00 0.03 0.00 87 1007.6
20260509050025 21 164 1.6 4.8 0.00 0.03 0.00 87 1007.7
20260509045424 21 164 3.2 6.4 0.00 0.03 0.03 86 1007.6
20260509044824 22 164 1.6 4.8 0.00 0.03 0.03 87 1007.6
20260509044203 22 0 0.0 0.0 0.00 0.03 0.03 87 1007.7
20260509043603 22 164 0.0 1.6 0.00 0.03 0.03 86 1007.8
20260509042424 22 0 0.0 0.0 0.00 0.03 0.03 86 1007.9
20260509041824 22 164 0.0 3.2 0.00 0.03 0.03 86 1007.9
20260509041203 22 164 0.0 3.2 0.00 0.03 0.03 86 1008.0
20260509040603 22 164 0.0 1.6 0.00 0.03 0.03 86 1007.9
20260509040004 22 164 0.0 1.6 0.00 0.03 0.03 86 1007.9
20260509035445 22 164 1.6 3.2 0.00 0.03 0.03 86 1007.8
20260509034803 22 164 1.6 4.8 0.00 0.03 0.03 86 1007.6
20260509034245 22 164 3.2 4.8 0.00 0.03 0.03 86 1007.5
20260509033603 22 164 0.0 4.8 0.00 0.03 0.03 86 1007.4
20260509033003 22 0 0.0 0.0 0.00 0.03 0.03 86 1007.3
20260509032424 22 0 0.0 0.0 0.00 0.03 0.03 85 1007.2
20260509031824 22 0 0.0 0.0 0.00 0.03 0.03 85 1007.1
20260509031203 22 0 0.0 0.0 0.00 0.03 0.03 85 1006.9
20260509030624 22 0 0.0 0.0 0.00 0.03 0.03 85 1006.9
20260509030003 22 0 0.0 0.0 0.00 0.03 0.03 85 1006.9
20260509025403 22 0 0.0 0.0 0.00 0.03 0.03 85 1006.9
20260509024803 22 0 0.0 0.0 0.00 0.03 0.03 85 1006.7
20260509024203 22 0 0.0 0.0 0.00 0.03 0.03 85 1006.7
20260509023624 22 0 0.0 0.0 0.00 0.03 0.03 86 1006.6
20260509023045 22 0 0.0 0.0 0.00 0.03 0.03 85 1006.4
20260509022424 22 0 0.0 0.0 0.00 0.03 0.03 85 1006.3
20260509021803 22 164 0.0 1.6 0.00 0.03 0.03 85 1006.4
20260509021203 22 164 0.0 3.2 0.00 0.03 0.03 85 1006.2
20260509020624 22 164 1.6 6.4 0.00 0.03 0.03 85 1006.1
20260509020045 22 164 1.6 11.3 0.00 0.03 0.03 85 1006.0
20260509015445 22 164 3.2 11.3 0.00 0.03 0.03 85 1005.9
20260509014845 22 164 3.2 11.3 0.00 0.03 0.03 85 1005.8
20260509014203 22 164 4.8 12.9 0.00 0.03 0.03 85 1005.8
20260509013603 22 164 6.4 17.7 0.00 0.03 0.03 84 1005.8
20260509013045 22 164 6.4 17.7 0.00 0.03 0.03 84 1005.8
20260509012403 22 164 4.8 14.5 0.00 0.03 0.03 84 1005.8
20260509011803 22 164 4.8 14.5 0.00 0.03 0.03 84 1005.9
20260509011224 22 164 4.8 11.3 0.00 0.03 0.03 84 1005.9
20260509010645 22 164 4.8 12.9 0.00 0.03 0.03 84 1005.9
20260509010024 22 164 4.8 16.1 0.00 0.03 0.03 83 1005.9
20260509005506 23 164 6.4 17.7 0.00 0.03 0.03 83 1005.9
20260509004824 23 164 8.0 20.9 0.00 0.03 0.03 83 1005.9
20260509004203 23 163 8.0 17.7 0.00 0.03 0.03 83 1005.8
20260509003603 23 163 9.7 20.9 0.00 0.03 0.03 82 1005.8
20260509003003 23 163 11.3 25.7 0.00 0.03 0.03 82 1005.8
20260509002403 23 162 11.3 24.1 0.00 0.03 0.03 82 1005.8
20260509001824 23 161 11.3 24.1 0.00 0.03 0.03 81 1005.8
20260509001224 23 160 11.3 20.9 0.00 0.03 0.03 81 1005.7
20260509000624 23 159 12.9 24.1 0.00 0.03 0.03 82 1005.7
20260509000003 23 159 11.3 24.1 0.00 0.03 0.03 81 1005.9
20260508235403 23 158 11.3 19.3 0.00 0.03 0.03 81 1006.0
20260508234803 23 156 11.3 22.5 0.00 0.03 0.03 81 1006.0
20260508234224 23 154 11.3 22.5 0.00 0.03 0.03 80 1006.0
20260508233706 23 154 11.3 20.9 0.00 0.03 0.03 80 1005.9
20260508233003 23 153 11.3 25.7 0.00 0.03 0.03 80 1005.9
20260508232506 23 151 11.3 25.7 0.00 0.03 0.03 79 1005.9
20260508231803 23 145 12.9 27.4 0.00 0.03 0.03 79 1005.8
20260508231203 23 134 11.3 25.7 0.00 0.03 0.03 78 1005.6
20260508230624 24 133 9.7 20.9 0.00 0.03 0.03 78 1005.6
20260508230024 24 136 9.7 19.3 0.00 0.03 0.03 79 1005.7
20260508225445 23 140 11.3 22.5 0.00 0.03 0.03 79 1005.8
20260508224803 23 138 11.3 22.5 0.00 0.03 0.03 79 1005.7
20260508224224 23 137 11.3 24.1 0.00 0.03 0.03 78 1005.8
20260508223603 23 133 12.9 24.1 0.00 0.03 0.03 78 1006.0
20260508223045 23 133 11.3 20.9 0.00 0.03 0.03 78 1006.2
20260508222403 23 134 9.7 20.9 0.00 0.03 0.03 78 1006.3
20260508221803 23 134 9.7 17.7 0.00 0.03 0.03 78 1006.5
20260508221203 23 131 9.7 22.5 0.00 0.03 0.03 78 1006.6
20260508220645 23 119 9.7 22.5 0.00 0.03 0.03 78 1006.7
20260508220024 23 109 9.7 19.3 0.00 0.03 0.03 78 1006.8
20260508215445 22 107 9.7 17.7 0.00 0.03 0.03 79 1006.8
20260508214824 22 106 8.0 16.1 0.00 0.03 0.03 79 1006.9
20260508214224 22 106 8.0 14.5 0.00 0.03 0.03 79 1007.0
20260508213624 22 106 6.4 14.5 0.00 0.03 0.03 79 1007.2
20260508213024 22 106 6.4 12.9 0.00 0.03 0.03 79 1007.2
20260508212424 22 106 6.4 11.3 0.00 0.03 0.03 79 1007.2
20260508211824 22 106 4.8 9.7 0.00 0.03 0.03 79 1007.4
20260508211203 22 106 3.2 8.0 0.00 0.03 0.03 79 1007.5
20260508210624 22 106 4.8 12.9 0.00 0.03 0.03 80 1007.5
20260508210045 22 106 6.4 12.9 0.00 0.03 0.03 80 1007.5
20260508205424 22 106 4.8 11.3 0.00 0.03 0.03 79 1007.6
20260508204824 22 106 3.2 11.3 0.00 0.03 0.03 80 1007.7
20260508204203 22 106 1.6 8.0 0.00 0.03 0.03 80 1007.9
20260508203624 22 106 3.2 8.0 0.00 0.03 0.03 80 1008.1
20260508203003 21 106 4.8 8.0 0.00 0.03 0.03 80 1008.2
20260508202445 21 106 3.2 9.7 0.00 0.03 0.03 80 1008.3
20260508201845 21 106 3.2 9.7 0.00 0.03 0.03 80 1008.3
20260508201203 21 106 6.4 12.9 0.00 0.03 0.03 80 1008.3
20260508200603 21 106 6.4 12.9 0.00 0.03 0.03 80 1008.3
20260508200003 21 106 6.4 12.9 0.00 0.03 0.03 80 1008.3
20260508195424 21 106 8.0 17.7 0.00 0.03 0.03 80 1008.3
20260508194803 21 105 8.0 17.7 0.00 0.03 0.03 81 1008.3
20260508194224 21 104 6.4 12.9 0.00 0.03 0.03 81 1008.2
20260508193603 21 104 8.0 16.1 0.00 0.03 0.03 81 1008.3
20260508193003 21 104 6.4 14.5 0.00 0.03 0.03 81 1008.4
20260508192403 20 103 6.4 12.9 0.00 0.03 0.03 82 1008.5
20260508191824 20 102 6.4 14.5 0.00 0.03 0.03 82 1008.6
20260508191203 20 102 8.0 14.5 0.00 0.03 0.03 82 1008.6
20260508190645 20 101 8.0 14.5 0.00 0.03 0.03 82 1008.7
20260508190045 20 101 4.8 9.7 0.00 0.03 0.03 82 1008.8
20260508185403 20 101 3.2 9.7 0.00 0.03 0.03 83 1009.0
20260508184803 19 101 4.8 9.7 0.00 0.03 0.03 83 1009.1
20260508184224 19 101 3.2 8.0 0.00 0.03 0.03 83 1009.1
20260508183603 19 101 1.6 6.4 0.00 0.03 0.03 84 1009.3
20260508183003 18 101 3.2 8.0 0.03 0.03 0.03 85 1009.5
20260508182424 18 101 3.2 8.0 0.03 0.03 0.03 85 1009.6
20260508181803 18 101 1.6 6.4 0.03 0.03 0.03 85 1009.8
20260508181203 18 101 3.2 8.0 0.03 0.03 0.03 84 1010.1
20260508180603 18 101 3.2 9.7 0.03 0.03 0.03 85 1010.2
20260508180003 18 101 4.8 9.7 0.03 0.03 0.03 85 1010.3
20260508175424 18 101 4.8 9.7 0.03 0.03 0.03 84 1010.1
20260508174824 18 101 4.8 11.3 0.03 0.03 0.03 84 1010.2
20260508174224 18 101 4.8 11.3 0.03 0.03 0.03 84 1010.0